Powrót do katalogu

COSMOS 2251 DEB

AktywnyLEO
NORAD 33972·DEBRIS·🇷🇺 Russia

Wystrzelony Jun 16, 1993 z Plesetsk Cosmodrome

Loading…

Następne Przeloty (najbliższe 24 godziny)

TLE

ŚwieżeSource: Space-Track

Epoka: Sep 14, 2026, 08:48 UTC

1 33972U 93036FF  26257.36714595  .00003767  00000-0  11366-2 0  9999
2 33972  73.9951  41.8274 0120739 145.2116 242.7946 14.38660810910357

Śledź COSMOS 2251 DEB w czasie rzeczywistym z AllMySat

Download on the App Store